Location: Eastchurch
(51.4000°N, 0.8667°E)
Time: 07:22:20
(UTC+00:00)

SL-16 R/B - Pass Details

Date: 19 January 2026
Orbit: 985 x 1007 km, 99.8° (Epoch: 18 February)

Event Time Altitude Azimuth Distance (km) Brightness Sun altitude
Rises 17:22:07 0° 15° (NNE) 3,708 5.2 -8.9°
Reaches altitude 10° 17:24:37 10° 13° (NNE) 2,754 4.5 -9.3°
Maximum altitude 17:30:43 67° 293° (WNW) 1,067 2.9 -10.2°
Drops below altitude 10° 17:36:48 10° 212° (SSW) 2,740 5.6 -11.1°
Sets 17:39:16 0° 210° (SSW) 3,686 6.3 -11.5°
